DRAGON CRS-17 (44222 NORAD) Tracking and Keplerian Element Data

This shows tracking and keplerian element data for the satellite.

Feedback or suggestion? Click here.




ElementValue
Catalog44222
NameDRAGON CRS-17
Epoch Orbit328
Epoch Day145.38341464
Epoch Year2019
RAAN114.4671
Inclination51.645
Eccentricity0.0007296
Argument of Perigee335.1078
Mean Anonmoly140.6481
Mean Motion15.51158306
Decay Rate0.00011705
L11 44222U 19025A 19145.38341464 .00011705 00000-0 20417-3 0 9995
L22 44222 51.6450 114.4671 0007296 335.1078 140.6481 15.51158306 3284

Live tracking and technical data element details for DRAGON CRS-17 (NORAD 44222). DRAGON CRS-17 can be tracked NOW for your location showing map with azimuth and elevation plus other details from your city location.

Track the satellite on the map from your city or location and see movement details for azimuth, elevation, latitude, longitude, range, height, and movement on the map or in text.







IsCatalogInMostPopularTable: catalog: 44222, numindb: 4
Update: records affected: 1



GetName: 44222 DRAGON CRS-17

Hit Count: updated at: Sun, 26 May 2019 07:53:55 GMT